Temperature
7 7 8 8 9 9 10 11 10 10 11 13 13 13 13 14 14 15 16 17 17 17 17 17 16 15 15 14 14 13 13 12 12 12 11 10 10 10 9 9 9 8 8 8
6 8 8 8 9 10 11 11 11 10 11 12 13 13 13 13 14 15 16 17 17 17 17 17 16 16 15 14 13 13 12 12 12 11 11 10 9 9 9 8 8 8 8 8
6 7 8 8 10 10 11 11 11 11 12 11 11 11 12 14 15 16 17 18 18 18 17 17 17 16 15 14 14 13 12 12 11 11 10 10 9 9 9 8 8 8 7 7
5 6 7 9 10 11 11 11 11 11 11 11 12 14 16 17 17 17 18 18 18 18 17 17 16 16 15 14 13 13 12 11 11 10 10 9 9 9 8 8 8 7 7 7
5 6 7 8 8 10 10 10 11 11 11 11 13 13 14 16 17 18 18 18 18 18 17 17 16 16 15 14 13 13 12 11 11 10 10 9 9 8 8 7 7 7 6 6
5 6 7 9 9 9 10 10 10 10 11 10 10 11 13 15 16 16 17 17 17 17 17 17 16 15 15 14 13 13 12 11 10 10 9 9 8 8 7 7 7 6 6 5
5 5 7 8 8 9 9 10 10 11 11 10 10 13 14 15 15 16 16 17 17 17 17 16 16 15 15 14 13 13 12 11 10 9 9 8 8 7 7 6 6 5 5 5
5 5 7 7 7 9 9 10 11 11 11 11 11 13 13 14 15 15 16 16 16 16 16 16 15 15 14 14 13 12 11 10 10 9 8 8 7 7 6 6 5 5 4 4
6 7 7 7 8 9 10 10 11 11 12 12 12 12 12 13 14 15 15 15 16 16 15 15 15 14 14 13 12 12 11 10 9 8 8 7 7 6 6 5 5 4 4 3
5 6 7 8 8 9 10 10 11 12 12 12 12 12 12 13 13 14 14 15 15 15 15 14 14 13 13 13 12 11 10 9 9 8 7 7 6 5 5 5 4 4 3 3
4 5 6 8 9 10 10 10 11 11 11 12 12 12 12 12 13 13 14 14 14 14 14 14 13 13 12 12 11 10 9 9 8 7 7 6 5 5 4 4 3 3 2 2
5 6 6 7 9 9 9 10 11 11 11 11 12 12 12 12 13 13 13 13 13 13 13 13 12 12 11 11 10 10 9 8 8 7 6 5 5 4 3 3 3 2 2 1
6 7 7 8 9 9 9 10 10 11 11 11 11 12 12 12 13 13 13 13 13 13 13 12 12 11 10 10 9 9 9 8 7 6 6 5 4 4 3 2 2 1 1 0
6 6 6 7 8 9 9 10 10 10 11 11 11 11 11 12 12 12 12 12 12 12 12 11 11 10 10 9 9 8 8 7 6 6 5 4 4 3 3 2 1 1 0 -0
5 6 6 7 8 8 9 9 9 10 10 10 10 11 11 11 12 12 12 12 12 11 11 10 10 9 9 9 8 8 7 6 6 5 4 4 3 2 2 1 1 0 -0 -1
5 6 6 6 7 8 8 9 9 10 10 10 10 10 11 11 11 11 11 11 11 11 10 10 10 9 8 8 7 7 6 6 5 4 4 3 2 2 1 1 0 -1 -1 -2
5 5 5 6 7 7 8 9 9 10 10 10 10 10 10 10 11 10 10 10 10 10 10 10 9 9 8 7 7 6 6 5 4 3 3 2 2 1 1 -0 -1 -1 -2 -3
5 6 6 7 7 7 8 9 9 9 10 10 10 10 10 11 11 10 10 10 9 9 9 9 8 8 7 7 6 6 5 4 3 3 2 2 1 0 -0 -1 -1 -2 -3 -3
5 5 6 6 7 7 8 8 9 9 9 10 10 10 10 10 10 10 10 9 9 9 8 7 7 7 6 6 5 5 4 3 3 2 1 1 0 -0 -1 -1 -2 -3 -3 -4
5 5 6 6 7 7 8 8 9 9 9 9 9 9 9 9 10 9 9 9 9 9 8 7 6 6 5 5 4 4 3 3 2 1 1 0 -0 -1 -1 -2 -3 -3 -4 -4
5 6 6 6 7 7 8 8 8 9 9 9 9 9 9 9 9 9 8 8 7 7 6 6 6 5 4 4 3 3 2 2 1 1 0 -0 -1 -1 -2 -3 -3 -4 -4 -5
5 5 6 6 7 7 8 8 8 8 8 8 8 8 8 8 8 7 7 8 7 6 5 5 5 4 4 3 3 2 2 1 1 0 -0 -1 -2 -2 -3 -3 -4 -4 -5 -5
4 5 6 6 7 7 7 7 7 8 8 8 8 8 8 8 7 7 6 6 5 5 5 4 4 3 3 2 2 1 1 0 -0 -1 -1 -2 -2 -3 -4 -4 -5 -5 -6 -6
4 4 5 5 6 6 6 6 6 7 7 7 7 7 7 7 6 6 6 5 5 4 3 3 2 2 2 1 1 0 -0 -1 -1 -2 -2 -3 -3 -4 -4 -5 -5 -6 -6 -7
3 4 4 5 5 5 5 5 5 5 5 4 4 4 5 6 6 5 4 4 3 3 2 1 1 1 1 1 0 -0 -1 -1 -2 -3 -3 -3 -4 -5 -5 -6 -6 -6 -7 -7
2 3 3 3 4 4 4 4 4 3 3 3 2 2 3 3 4 3 2 2 2 1 1 1 0 -0 -0 -1 -1 -1 -2 -3 -3 -3 -4 -4 -5 -5 -6 -6 -6 -7 -7 -7
1 1 1 1 1 2 2 2 2 2 2 2 2 1 1 1 2 1 1 0 0 0 -0 -0 -1 -1 -1 -2 -2 -3 -3 -3 -4 -4 -5 -5 -5 -6 -6 -7 -7 -7 -7 -8
Wind_Speed
8 7 7 9 15 17 16 15 13 15 13 11 8 8 7 6 6 6 6 7 9 8 8 7 7 7 7 8 8 9 9 9 9 8 8 8 7 7 7 7 7 7 7 6
8 7 7 9 14 20 22 19 16 12 14 10 8 4 4 6 8 8 9 10 10 9 9 9 9 9 8 9 9 9 9 9 8 8 8 8 7 7 7 6 6 6 6 6
6 5 4 11 18 23 19 17 17 20 16 6 8 11 12 11 10 11 12 11 11 11 11 11 10 10 10 10 9 9 9 8 8 9 8 8 8 8 7 7 6 6 6 6
3 3 11 10 8 13 16 17 15 13 9 12 13 13 11 11 12 12 12 11 11 10 10 9 9 9 9 9 10 10 9 9 9 9 9 8 8 7 7 5 6 5 5 5
4 6 8 8 6 12 14 16 14 15 10 9 7 5 7 8 10 13 13 11 11 10 9 9 10 11 11 10 10 10 10 9 9 10 9 9 8 7 5 6 5 4 4 5
5 5 8 8 4 5 8 12 9 13 14 10 7 9 12 8 9 10 9 8 8 7 8 10 10 12 13 12 11 11 10 9 9 9 10 9 8 7 5 5 6 6 5 4
8 7 9 7 2 7 9 8 5 12 14 12 13 16 11 7 9 10 9 8 8 9 10 10 12 13 13 11 11 9 9 9 9 8 9 8 7 6 7 7 7 6 5 4
8 8 10 2 5 8 6 3 3 6 9 11 13 12 7 8 9 8 7 7 9 10 9 9 12 14 13 11 9 10 11 10 9 9 8 8 9 7 7 8 7 6 5 4
8 9 4 3 6 6 3 3 4 4 6 8 9 9 8 8 8 8 8 9 8 10 10 9 10 12 14 11 12 12 12 11 10 9 8 8 9 9 7 6 6 5 4 3
6 9 8 8 8 6 5 5 6 5 5 5 7 8 8 7 7 7 7 8 9 12 13 10 9 9 11 13 13 14 13 11 10 10 9 7 6 6 6 6 5 4 4 3
9 9 9 10 8 7 6 6 6 6 5 5 6 6 7 7 7 7 7 7 10 13 13 12 11 11 12 13 15 14 13 11 10 9 9 8 6 5 5 4 5 6 4 4
10 8 7 10 9 8 8 9 8 6 6 5 5 6 6 6 7 7 9 9 10 11 13 13 13 13 12 12 14 16 13 10 8 8 8 8 8 7 8 7 8 7 6 4
14 12 12 14 12 10 10 10 8 7 7 6 4 5 5 5 6 8 9 11 12 13 14 14 14 13 11 11 13 13 13 11 9 8 8 8 7 7 6 6 9 9 8 6
12 10 12 13 13 11 9 8 6 5 4 3 3 4 5 5 7 9 10 10 12 14 14 14 14 12 11 12 13 13 12 12 10 8 8 7 7 6 6 6 4 3 4 6
15 13 13 12 10 8 7 5 4 4 3 2 3 5 7 9 10 10 10 12 13 14 13 14 14 12 11 12 13 13 11 9 8 8 7 7 6 6 5 5 5 3 2 2
12 11 10 11 11 9 7 6 7 7 5 5 5 6 6 7 9 11 11 13 15 16 14 14 14 12 12 13 14 11 9 14 12 9 8 7 6 6 5 5 4 3 2 1
12 13 12 11 11 10 10 9 9 8 7 8 7 7 8 10 11 11 10 9 10 11 12 13 14 13 12 13 13 10 10 11 13 9 7 7 6 5 5 4 4 2 1 1
16 16 14 12 11 11 10 9 7 7 8 8 8 10 11 13 13 13 12 12 13 11 9 11 13 13 13 12 12 10 10 9 8 8 7 6 6 5 5 4 4 3 1 1
17 16 15 14 12 12 10 9 7 7 7 9 10 10 10 10 12 13 14 15 15 13 9 11 19 15 13 14 14 10 10 10 8 7 7 8 7 5 4 4 3 2 1 0
16 14 14 12 11 10 10 8 7 7 8 10 10 9 10 11 13 14 13 10 7 9 13 15 15 13 13 13 14 10 10 10 9 8 7 6 6 5 4 3 3 2 1 1
14 13 12 11 10 9 10 9 10 10 10 11 12 13 13 13 13 13 13 10 7 12 15 19 13 12 11 13 14 10 10 9 9 8 7 6 5 5 4 3 2 1 1 1
10 11 11 11 10 9 8 8 9 11 11 10 11 13 15 14 13 10 8 9 12 17 13 11 10 14 16 16 10 10 9 9 8 7 6 6 5 4 3 3 2 1 1 1
7 8 9 10 10 8 7 8 10 11 12 13 14 15 15 13 12 13 11 9 11 17 13 11 16 22 21 12 10 10 9 9 7 6 6 5 5 4 3 3 2 1 2 2
3 4 6 7 9 10 10 8 9 9 10 10 10 11 14 13 9 6 10 18 19 19 12 17 23 22 18 10 9 9 8 8 7 6 6 5 4 3 3 2 2 2 2 3
3 5 7 9 10 9 11 12 13 13 12 11 11 10 8 7 10 12 13 15 21 19 13 18 22 19 12 9 9 8 8 7 7 6 5 5 4 3 3 2 2 2 3 3
4 5 5 6 7 9 10 11 11 10 12 12 11 10 10 11 14 14 13 14 17 18 13 11 12 13 9 9 9 8 7 7 6 5 5 4 4 3 2 2 3 3 3 4
6 6 7 8 8 7 8 9 11 11 11 13 13 11 12 13 13 14 14 13 13 12 11 10 9 9 9 9 8 7 6 6 5 4 4 3 3 2 2 3 3 3 3 4
Wind_Direction
259 249 216 225 210 201 206 208 210 220 219 226 220 211 209 192 176 174 187 194 197 198 194 186 181 178 174 170 166 162 162 167 172 167 161 156 155 156 154 156 161 162 160 158
261 241 229 239 217 209 213 214 222 224 231 227 229 203 198 189 183 194 206 209 205 199 192 190 187 180 172 170 166 161 165 168 159 153 152 153 151 147 145 145 144 144 153 157
244 258 261 238 215 208 213 215 210 223 228 189 205 210 215 210 201 206 212 210 204 201 197 193 187 177 174 168 158 159 161 157 154 152 150 151 146 143 147 149 144 147 154 157
229 218 224 234 217 207 216 225 218 222 208 192 210 217 216 204 200 211 214 212 209 204 197 185 170 162 154 150 155 157 157 155 154 151 149 145 143 146 145 143 147 151 152 155
200 226 256 273 227 199 205 230 222 226 224 211 213 218 248 223 208 211 211 208 206 197 183 166 161 155 147 150 153 156 160 160 158 154 149 147 149 148 142 139 137 137 139 139
200 216 235 245 233 197 184 241 226 219 224 212 167 216 241 224 213 222 216 202 190 165 153 157 158 149 149 155 158 166 164 158 152 150 150 152 150 141 133 132 131 125 116 123
213 228 256 265 248 138 178 240 245 215 219 204 203 227 241 204 205 209 206 192 172 159 161 164 154 150 152 157 167 159 143 138 138 140 141 139 130 125 126 120 116 112 108 99
204 219 240 239 136 174 229 273 265 223 220 215 225 236 229 203 202 192 182 170 161 158 159 153 153 152 153 159 148 134 133 131 131 129 127 127 122 118 118 121 117 113 108 94
212 228 262 213 223 242 236 267 269 257 251 232 233 231 221 213 200 187 178 169 158 153 148 147 156 154 152 148 139 134 129 128 126 119 115 123 127 127 121 119 122 123 121 118
248 254 264 271 271 270 271 274 276 274 265 229 230 223 212 201 189 178 170 163 152 146 148 151 151 142 139 140 137 133 131 129 127 123 116 110 112 123 127 131 129 131 132 133
251 266 274 262 251 265 282 293 302 301 277 245 229 223 202 193 185 177 165 156 155 156 154 149 140 133 135 138 135 130 129 129 125 123 124 116 106 108 121 135 148 147 154 152
246 245 249 265 269 267 271 274 272 277 287 277 230 213 196 187 176 165 157 152 147 143 142 141 138 135 138 139 137 134 134 133 131 129 125 123 117 97 84 101 107 107 117 119
250 261 264 271 271 260 258 262 262 257 257 263 244 199 179 173 162 153 151 152 152 147 143 140 137 137 140 139 137 136 138 137 134 134 133 131 129 126 115 86 83 86 90 86
252 256 262 262 261 256 256 260 261 270 268 245 206 166 153 149 149 153 156 152 141 136 136 136 135 138 140 135 130 128 129 133 134 134 134 133 131 130 130 129 114 76 66 67
250 245 251 260 264 259 259 256 252 252 233 209 170 160 160 159 159 154 142 135 131 130 134 136 136 139 138 133 130 130 129 130 128 127 126 126 125 122 121 120 119 113 78 50
252 254 250 250 249 248 244 238 236 234 212 195 177 170 164 150 139 136 139 144 144 147 147 144 142 143 138 132 127 125 126 132 131 128 126 125 124 124 124 124 124 124 123 116
239 246 245 245 242 242 239 233 226 219 203 193 180 154 138 132 130 135 138 137 133 135 140 141 140 138 135 133 129 129 127 131 129 124 125 128 128 129 131 133 136 138 152 241
234 239 239 236 234 235 238 233 220 207 200 188 156 150 153 154 154 150 141 127 117 114 121 131 134 133 131 129 127 128 128 127 128 128 126 126 126 127 130 133 138 139 135 353
235 237 237 236 231 225 225 221 208 198 179 163 162 166 164 155 146 142 139 138 140 141 144 140 138 132 130 133 128 125 126 126 124 124 125 131 124 123 127 132 136 142 157 183
233 232 229 230 224 215 211 202 185 180 170 160 154 148 144 143 141 140 139 137 145 143 142 140 134 131 129 133 127 125 127 128 129 129 127 129 131 132 134 139 145 156 180 219
228 225 221 218 212 204 198 183 175 174 166 161 161 158 149 143 141 140 138 133 127 131 138 138 134 133 131 133 126 125 127 129 130 133 135 136 136 137 141 145 151 166 198 241
230 220 215 208 196 192 187 175 171 164 155 151 145 140 139 139 137 127 118 135 142 141 136 134 133 136 138 130 123 125 126 127 129 131 134 138 141 145 150 155 166 188 219 247
229 212 200 192 186 173 152 152 155 155 153 152 151 151 147 145 146 142 137 138 140 138 133 134 139 137 132 123 124 125 126 128 130 134 136 139 144 150 157 166 180 202 231 253
200 175 164 153 141 138 140 138 130 128 126 127 134 140 138 134 123 108 123 138 140 132 128 136 137 134 126 121 121 122 125 126 129 131 133 136 141 148 159 172 195 222 239 254
126 127 131 136 140 141 135 126 120 119 117 117 114 112 112 118 127 129 129 134 135 127 126 134 133 127 121 119 121 123 126 131 135 136 139 145 151 159 172 189 208 231 247 257
102 113 116 117 124 131 135 134 133 133 130 126 119 114 111 112 116 121 123 124 125 124 123 122 123 120 117 119 121 124 126 129 128 131 142 150 160 171 187 207 229 239 251 259
90 98 103 104 107 118 124 127 131 133 134 132 127 122 121 121 121 122 122 122 121 119 117 116 115 116 117 119 120 121 123 125 130 138 146 155 168 184 203 222 237 248 257 264
Height
1388 1386 1386 1385 1384 1387 1388 1388 1393 1390 1390 1383 1380 1380 1381 1383 1386 1389 1392 1396 1399 1402 1406 1409 1413 1416 1419 1422 1425 1429 1432 1435 1439 1443 1446 1450 1453 1457 1460 1463 1466 1469 1471 1473
1386 1381 1380 1379 1376 1377 1377 1379 1382 1383 1382 1376 1376 1378 1380 1381 1384 1386 1389 1392 1396 1400 1403 1406 1410 1413 1416 1419 1422 1426 1429 1433 1436 1440 1443 1447 1450 1454 1457 1460 1463 1465 1467 1469
1386 1380 1378 1375 1364 1365 1367 1366 1370 1372 1368 1374 1375 1375 1375 1377 1380 1382 1385 1389 1392 1396 1399 1403 1407 1410 1413 1417 1420 1423 1427 1430 1434 1437 1440 1444 1447 1451 1453 1456 1459 1461 1463 1465
1386 1383 1378 1360 1353 1355 1359 1359 1360 1360 1361 1365 1366 1367 1369 1372 1375 1378 1381 1385 1388 1392 1396 1400 1404 1407 1411 1414 1417 1421 1424 1428 1431 1434 1438 1441 1444 1447 1450 1453 1455 1457 1460 1461
1383 1378 1368 1356 1351 1350 1354 1353 1353 1355 1358 1360 1361 1364 1364 1367 1370 1373 1377 1380 1384 1388 1392 1396 1400 1403 1407 1411 1414 1418 1421 1425 1428 1432 1435 1438 1441 1444 1447 1450 1452 1454 1456 1458
1379 1374 1363 1347 1343 1342 1349 1351 1346 1349 1352 1356 1360 1365 1357 1360 1365 1368 1372 1375 1379 1383 1387 1391 1395 1399 1403 1407 1411 1415 1419 1422 1426 1430 1433 1436 1439 1442 1445 1447 1449 1451 1453 1455
1373 1368 1356 1344 1340 1340 1352 1345 1339 1340 1343 1348 1351 1349 1350 1355 1358 1362 1365 1370 1374 1378 1382 1386 1391 1395 1399 1404 1408 1412 1416 1420 1424 1428 1431 1434 1437 1440 1442 1444 1446 1448 1450 1451
1366 1364 1353 1340 1340 1341 1339 1336 1335 1335 1337 1339 1340 1342 1345 1348 1351 1355 1358 1363 1368 1372 1377 1382 1387 1391 1396 1400 1405 1410 1414 1418 1422 1425 1429 1432 1435 1437 1439 1442 1444 1445 1447 1448
1351 1344 1336 1334 1335 1334 1334 1334 1333 1332 1332 1334 1335 1336 1338 1341 1344 1348 1352 1357 1362 1367 1372 1378 1383 1388 1392 1398 1402 1407 1411 1415 1419 1423 1427 1430 1432 1435 1437 1439 1441 1442 1444 1445
1346 1338 1334 1332 1331 1331 1331 1331 1330 1330 1330 1330 1330 1330 1332 1335 1338 1342 1346 1351 1357 1362 1367 1373 1379 1385 1390 1395 1400 1404 1409 1413 1417 1421 1424 1427 1430 1433 1435 1437 1438 1439 1441 1442
1340 1334 1331 1326 1327 1327 1328 1327 1327 1326 1326 1326 1326 1326 1327 1330 1333 1337 1342 1347 1352 1358 1364 1370 1376 1382 1387 1392 1397 1402 1407 1411 1415 1419 1422 1425 1428 1431 1433 1435 1436 1437 1438 1439
1332 1328 1329 1323 1322 1324 1324 1323 1323 1323 1322 1322 1322 1322 1324 1326 1330 1334 1338 1343 1349 1355 1361 1367 1373 1379 1385 1391 1396 1400 1404 1409 1413 1417 1420 1423 1426 1428 1430 1432 1433 1434 1435 1436
1324 1323 1323 1319 1319 1320 1320 1319 1319 1319 1319 1318 1318 1320 1321 1324 1327 1331 1336 1341 1346 1352 1359 1365 1371 1377 1383 1389 1394 1399 1403 1407 1411 1415 1418 1421 1424 1426 1428 1430 1431 1432 1432 1433
1319 1319 1316 1314 1314 1314 1315 1315 1315 1314 1315 1316 1316 1317 1320 1322 1325 1329 1334 1339 1346 1352 1358 1364 1370 1376 1382 1388 1393 1398 1402 1406 1410 1413 1416 1419 1422 1424 1426 1427 1428 1429 1430 1430
1310 1311 1310 1308 1309 1309 1309 1310 1310 1310 1311 1313 1314 1316 1318 1321 1324 1328 1334 1339 1345 1351 1357 1363 1369 1375 1381 1386 1391 1396 1400 1404 1408 1411 1414 1417 1420 1422 1423 1425 1425 1426 1427 1427
1302 1303 1303 1303 1303 1303 1304 1305 1306 1306 1308 1309 1312 1314 1317 1320 1324 1328 1333 1339 1344 1349 1355 1361 1368 1374 1380 1385 1390 1395 1399 1403 1406 1410 1412 1415 1417 1419 1421 1422 1423 1423 1423 1423
1296 1295 1295 1296 1297 1297 1298 1300 1301 1302 1304 1306 1309 1312 1315 1319 1323 1327 1333 1339 1344 1350 1355 1361 1367 1373 1379 1384 1389 1393 1397 1401 1405 1408 1411 1413 1415 1417 1418 1419 1420 1420 1420 1420
1285 1286 1287 1289 1290 1292 1293 1295 1297 1299 1301 1303 1306 1310 1313 1317 1320 1326 1331 1337 1343 1349 1355 1361 1367 1372 1377 1382 1387 1391 1395 1399 1403 1406 1409 1411 1413 1414 1416 1416 1417 1417 1417 1417
1276 1277 1279 1281 1283 1286 1287 1290 1292 1295 1298 1300 1303 1307 1311 1315 1319 1324 1330 1336 1341 1346 1353 1359 1365 1371 1376 1381 1386 1390 1394 1397 1401 1404 1406 1408 1410 1412 1413 1413 1414 1414 1414 1413
1265 1268 1270 1273 1276 1279 1281 1285 1288 1291 1294 1298 1301 1305 1309 1313 1318 1323 1329 1334 1340 1345 1351 1357 1363 1369 1374 1379 1384 1388 1392 1395 1399 1401 1404 1406 1407 1409 1409 1410 1411 1411 1410 1410
1256 1259 1261 1264 1268 1271 1275 1279 1283 1287 1291 1294 1298 1302 1306 1311 1317 1322 1327 1333 1339 1345 1351 1356 1362 1367 1372 1377 1382 1386 1390 1393 1396 1399 1401 1403 1404 1406 1406 1407 1407 1407 1407 1407
1248 1251 1254 1257 1261 1265 1269 1274 1279 1283 1287 1291 1296 1300 1304 1309 1315 1321 1326 1331 1337 1343 1349 1355 1360 1366 1371 1376 1380 1384 1388 1391 1394 1397 1399 1400 1401 1403 1403 1404 1404 1404 1404 1403
1242 1244 1247 1251 1255 1260 1265 1270 1274 1279 1283 1287 1292 1297 1301 1306 1312 1317 1323 1330 1336 1342 1348 1354 1359 1364 1369 1374 1378 1382 1386 1389 1392 1394 1396 1397 1399 1400 1400 1401 1401 1401 1400 1400
1237 1239 1243 1247 1252 1256 1260 1265 1270 1275 1280 1285 1290 1295 1300 1305 1311 1317 1323 1329 1335 1341 1347 1353 1358 1363 1368 1372 1376 1380 1383 1387 1389 1391 1393 1395 1396 1396 1397 1397 1397 1397 1397 1396
1234 1236 1240 1243 1248 1252 1257 1262 1267 1273 1278 1283 1289 1294 1299 1304 1309 1315 1322 1328 1335 1341 1347 1353 1358 1363 1367 1371 1375 1378 1381 1384 1387 1389 1390 1392 1393 1393 1394 1394 1394 1394 1393 1393
1234 1236 1239 1242 1245 1249 1254 1259 1264 1270 1275 1280 1286 1293 1298 1304 1310 1316 1322 1328 1335 1341 1346 1351 1356 1361 1366 1369 1373 1376 1379 1382 1384 1386 1388 1389 1389 1390 1390 1391 1391 1390 1390 1389
1235 1237 1240 1243 1247 1250 1254 1258 1263 1268 1274 1278 1284 1291 1298 1304 1310 1316 1322 1328 1334 1340 1345 1351 1356 1360 1364 1368 1371 1375 1377 1380 1382 1384 1385 1386 1386 1387 1387 1387 1387 1386 1386 1385